Location: Bergheim
(50.9593°N, 6.6400°E)
Time: 04:11:15
(UTC+01:00)

ISS - Pass Details

Date: 13 December 2018
Orbit: 404 x 407 km, 51.6° (Epoch: 17 January)

Event Time Altitude Azimuth Distance (km) Brightness Sun altitude
Rises 17:52:00 0° 282° (WNW) 2,331 1.1 -12.5°
Reaches altitude 10° 17:54:34 10° 261° (W) 1,466 0.4 -12.8°
Maximum altitude 17:56:48 17° 219° (SW) 1,109 -0.8 -13.2°
Drops below altitude 10° 17:59:01 10° 176° (S) 1,457 -0.8 -13.5°
Enters shadow 18:04:25 -8° 146° (SE) 3,415 0.7 -14.3°
